Погода в Солдатском

Россия / Курская область     51°28′40″N   37°53′16″E
темп.,
°C
ветер,
м/с
пор.,
м/с
влажн.,
%
обл.,
%
осадки,
мм/ч
давл.,
гПа
погр.,
м
9 мая, вс
вс900:00+5зюз71194100 0.0 1009618
03:00+5зсз61192100 0.2 1010973
06:00+4зсз81493100 0.1 1012840
09:00+5сз81284100 0.2 1014905
12:00+6сз81173100 0.0 10161373
15:00+8сз8106898 0.3 10171402
18:00+8ссз81068100 0.3 10201222
21:00+5сз512805 0.3 1022385
10 мая, пн
пн1000:00+4сз514835 0.0 1022328
03:00+4ссз5138182 0.0 1024309
06:00+4ссз61477100 0.0 1024371
09:00+9с813615 0.0 10251287
12:00+12ссв912508 0.0 10241611
15:00+13ссв10135166 0.0 10231620
18:00+11ссв91461100 0.0 10221378
21:00+10ссв91659100 0.0 1022852
11 мая, вт
вт1100:00+10ссв91869100 0.0 1021679
03:00+9ссв81780100 0.3 1021630
06:00+8ссв81790100 0.9 1021497
09:00+8св81794100 4.3 1022759
12:00+11всв81390100 0.8 1022919
15:00+14в7116419 0.9 10231525
18:00+14вюв5866100 0.0 10231164
21:00+10всв3783100 0.1 1024217
12 мая, ср
ср1200:00+8в389174 0.0 1023206
03:00+7всв489529 0.0 1022170
06:00+7в3789100 0.0 1022218
09:00+12вюв56735 0.0 1021716
12:00+16вюв685555 0.1 10211919
15:00+15вюв586382 0.1 10211177
18:00+15в4966100 0.0 1020504
21:00+13в51272100 0.1 1019362
13 мая, чт
чт1300:00+11в477761 0.0 1018122
03:00+10вюв47884 0.0 1017118
06:00+10вюв369060 0.0 1017144
09:00+16ююв476496 0.0 1017614
12:00+19ююв575510 0.0 10161465
15:00+20ююв675398 0.0 10161796
18:00+19юв5865100 0.0 1016430
21:00+15вюв46818 0.0 101692